W1HS Weather Reports


time (UTC)temp
F
wind
direction
speed
knots
gust
knots
rain 1hr
in
rain 24hr
in
rain mn
in
humidity
%
barometer
mb
20260421011918 33 0.0 0.0 0.00 0.00 0.00 61 1005.6
20260421010918 33 0.0 0.0 0.00 0.00 0.00 61 1005.5
20260421005918 34 0.0 0.0 0.00 0.00 0.00 60 1005.4
20260421004920 34 0.0 0.0 0.00 0.00 0.00 58 1005.3
20260421003920 34 0.0 0.0 0.00 0.00 0.00 60 1005.0
20260421002920 35 0.0 0.9 0.00 0.00 0.00 57 1004.9
20260421001920 35 0.0 0.0 0.00 0.00 0.00 56 1004.6
20260421000919 35 293 1.7 6.1 0.00 0.00 0.00 56 1004.3
20260420235920 35 315 0.9 3.5 0.00 0.00 0.00 54 1004.1
20260420234922 36 315 0.9 2.6 0.00 0.00 0.00 54 1004.1
20260420233920 36 315 0.9 3.5 0.00 0.00 0.00 53 1003.8
20260420232919 37 0 2.6 5.2 0.00 0.00 0.00 54 1003.8
20260420231920 38 0.0 0.0 0.00 0.00 0.00 53 1003.7
20260420230920 38 338 2.6 3.5 0.00 0.01 0.00 51 1003.6
20260420225920 39 315 3.5 7.0 0.00 0.01 0.00 54 1003.3
20260420224919 39 270 7.0 8.7 0.00 0.01 0.00 57 1003.4
20260420223922 39 293 3.5 4.3 0.00 0.01 0.00 57 1003.3
20260420222919 39 293 3.5 5.2 0.00 0.02 0.00 59 1003.2
20260420221920 38 270 7.0 10.4 0.00 0.02 0.00 59 1003.1
20260420220920 38 293 4.3 7.0 0.00 0.03 0.00 57 1003.1
20260420215920 39 270 7.8 10.4 0.00 0.04 0.00 55 1003.0
20260420214919 40 23 2.6 5.2 0.00 0.04 0.00 54 1002.9
20260420213919 39 338 3.5 7.0 0.00 0.04 0.00 56 1002.8
20260420212919 40 0 2.6 7.0 0.00 0.04 0.00 59 1002.7
20260420211921 40 315 3.5 8.7 0.00 0.04 0.00 64 1002.6
20260420210920 38 293 0.9 3.5 0.00 0.04 0.00 64 1002.4
20260420205920 38 0.0 0.0 0.00 0.04 0.00 63 1002.4
20260420204920 39 0 0.9 2.6 0.00 0.04 0.00 62 1002.3
20260420203919 39 0.0 0.0 0.00 0.05 0.00 63 1002.2
20260420202922 40 23 1.7 4.3 0.00 0.05 0.00 66 1002.3
20260420201922 39 0.0 1.7 0.00 0.06 0.00 67 1002.1
20260420200919 39 0 0.9 3.5 0.00 0.06 0.00 67 1002.0
20260420195919 39 270 3.5 6.1 0.00 0.07 0.00 65 1002.0
20260420194920 39 338 2.6 4.3 0.00 0.08 0.00 71 1002.0
20260420193923 38 0.0 1.7 0.00 0.08 0.00 72 1002.1
20260420192919 37 23 0.9 3.5 0.00 0.09 0.00 71 1002.1
20260420191921 38 23 3.5 7.0 0.00 0.09 0.00 71 1001.9
20260420190921 37 23 2.6 3.5 0.00 0.10 0.00 66 1001.8
20260420185919 37 23 1.7 4.3 0.00 0.10 0.00 67 1001.9
20260420184919 37 90 0.9 1.7 0.00 0.11 0.00 71 1001.8
20260420184050 37 68 2.6 3.5 0.00 0.12 0.00 70 1001.8
20260420183619 37 113 0.9 1.7 0.00 0.12 0.00 71 1001.8
20260420182619 38 45 0.9 3.5 0.00 0.13 0.00 69 1001.9
20260420181619 38 23 0.9 4.3 0.00 0.14 0.00 70 1002.0
20260420180619 39 45 3.5 6.1 0.00 0.16 0.00 64 1001.9
20260420175621 39 23 1.7 2.6 0.00 0.17 0.00 66 1001.9
20260420174619 39 23 0.9 1.7 0.00 0.18 0.00 62 1001.8
20260420173619 39 293 8.7 15.6 0.00 0.19 0.00 58 1001.7
20260420172619 39 270 9.6 12.2 0.00 0.20 0.00 55 1001.5
20260420171621 39 293 5.2 7.0 0.00 0.20 0.00 54 1001.5
20260420170619 39 293 4.3 7.8 0.00 0.22 0.00 57 1001.5
20260420165619 38 0.0 0.9 0.00 0.22 0.00 59 1001.5
20260420164619 38 338 2.6 7.8 0.00 0.23 0.00 59 1001.5
20260420163619 38 338 2.6 7.0 0.00 0.24 0.00 55 1001.5
20260420162619 38 248 7.0 9.6 0.00 0.25 0.00 54 1001.4
20260420161619 38 293 3.5 6.1 0.00 0.25 0.00 54 1001.3
20260420160619 38 270 6.1 8.7 0.00 0.25 0.00 55 1001.4
20260420155619 38 293 9.6 16.5 0.00 0.26 0.00 55 1001.2
20260420154619 38 293 8.7 13.0 0.00 0.27 0.00 62 1001.3
20260420153619 37 293 1.7 7.0 0.00 0.28 0.00 64 1001.4
20260420152619 37 0 0.9 2.6 0.00 0.28 0.00 66 1001.4
20260420151619 38 315 5.2 7.0 0.00 0.32 0.00 62 1001.3
20260420150623 38 315 7.0 11.3 0.00 0.33 0.00 60 1001.2
20260420145619 37 315 2.6 6.1 0.00 0.39 0.00 61 1001.2
20260420144619 38 23 3.5 7.0 0.00 0.45 0.00 63 1001.1
20260420143619 39 45 4.3 7.8 0.00 0.52 0.00 65 1001.1
20260420142619 37 315 5.2 11.3 0.00 0.54 0.00 64 1000.9
20260420141619 38 270 7.8 12.2 0.00 0.55 0.00 66 1000.9
20260420140619 37 315 2.6 6.1 0.00 0.56 0.00 70 1000.7
20260420135619 37 270 4.3 7.0 0.00 0.58 0.00 61 1000.5
20260420134619 37 293 8.7 14.8 0.00 0.59 0.00 65 1000.3
20260420133621 37 293 8.7 13.0 0.00 0.60 0.00 65 1000.3
20260420132621 37 293 7.8 12.2 0.00 0.64 0.00 72 1000.2
20260420131618 36 293 7.8 9.6 0.00 0.71 0.00 72 999.9
20260420130618 36 293 4.3 7.0 0.00 0.74 0.00 78 999.9
20260420125619 36 248 7.0 9.6 0.00 0.77 0.00 81 999.8
20260420124619 36 293 4.3 7.0 0.00 0.78 0.00 81 999.8
20260420123621 35 293 4.3 6.1 0.00 0.79 0.00 82 999.7
20260420122619 35 270 2.6 5.2 0.00 0.81 0.00 83 999.6
20260420121618 35 270 4.3 7.0 0.00 0.82 0.00 83 999.6
20260420120618 34 248 1.7 3.5 0.00 0.82 0.00 84 999.7
20260420115619 33 248 3.5 6.1 0.00 0.82 0.00 84 999.4
20260420114619 33 225 4.3 6.1 0.00 0.82 0.00 84 999.3
20260420113618 32 248 3.5 6.1 0.00 0.82 0.00 86 999.2
20260420112618 31 0.0 0.9 0.00 0.82 0.00 86 999.1
20260420111618 31 0.0 0.0 0.00 0.82 0.00 86 998.9
20260420110619 31 0.0 0.0 0.00 0.82 0.00 86 998.7
20260420105620 31 293 1.7 2.6 0.00 0.82 0.00 86 998.6
20260420104618 31 293 0.9 1.7 0.00 0.82 0.00 86 998.4
20260420103619 31 293 0.9 1.7 0.00 0.82 0.00 86 998.2
20260420102618 31 293 0.9 2.6 0.00 0.82 0.00 86 998.1
20260420101620 31 293 0.9 1.7 0.00 0.82 0.00 86 997.8
20260420100618 31 293 0.9 1.7 0.00 0.82 0.00 85 997.7
20260420095618 31 293 1.7 3.5 0.00 0.83 0.00 85 997.6
20260420094618 31 270 0.9 3.5 0.00 0.83 0.00 84 997.5
20260420093618 31 293 3.5 6.1 0.00 0.83 0.00 84 997.4
20260420092618 32 0.0 1.7 0.00 0.83 0.00 83 997.4
20260420091618 32 248 2.6 3.5 0.00 0.83 0.00 83 997.5
20260420090619 32 248 0.9 2.6 0.00 0.83 0.00 83 997.3
20260420085620 32 0.0 0.0 0.00 0.83 0.00 82 997.2
20260420083618 32 0.0 0.0 0.00 0.83 0.00 82 996.9
20260420082618 32 225 0.9 2.6 0.00 0.84 0.00 82 996.9
20260420081620 32 248 0.9 1.7 0.00 0.84 0.00 83 997.0
20260420080620 32 248 0.9 2.6 0.00 0.84 0.00 83 997.0
20260420075618 32 248 0.9 1.7 0.00 0.84 0.00 82 996.9
20260420074620 32 0.0 0.9 0.00 0.84 0.00 81 996.8
20260420073620 33 248 2.6 5.2 0.00 0.85 0.00 81 996.8
20260420072618 33 248 1.7 2.6 0.00 0.86 0.00 81 996.7
20260420071618 33 248 0.9 2.6 0.00 0.87 0.00 81 996.5
20260420070618 33 0.0 0.0 0.00 0.88 0.00 80 996.4
20260420065620 33 0.0 0.0 0.00 0.88 0.00 81 996.3
20260420064618 33 248 2.6 3.5 0.00 0.89 0.00 81 996.3
20260420063618 33 270 2.6 5.2 0.00 0.89 0.00 82 996.4
20260420062620 33 248 2.6 3.5 0.00 0.89 0.00 83 996.3
20260420061618 33 248 1.7 2.6 0.00 0.89 0.00 83 996.5
20260420060618 33 225 0.9 2.6 0.00 0.89 0.00 83 996.6
20260420055618 33 248 1.7 4.3 0.00 0.89 0.00 82 996.6
20260420054618 34 248 3.5 6.1 0.00 0.89 0.00 82 996.7
20260420053618 34 248 4.3 7.0 0.00 0.89 0.00 82 996.7
20260420052618 34 270 2.6 2.6 0.00 0.89 0.00 82 996.9
20260420051618 34 0.0 0.9 0.00 0.89 0.00 82 996.8
20260420050618 33 315 0.9 1.7 0.00 0.89 0.00 85 996.7
20260420045620 34 0.0 0.0 0.00 0.89 0.00 85 996.6
20260420044620 34 0.0 0.0 0.00 0.89 0.00 85 996.7
20260420043618 34 0.0 0.9 0.00 0.89 0.00 85 996.6
20260420042618 34 315 1.7 2.6 0.00 0.89 0.00 85 996.5
20260420041618 34 315 0.9 1.7 0.00 0.89 0.00 84 996.4
20260420040618 34 293 0.9 5.2 0.00 0.89 0.00 85 996.2
20260420035618 34 293 2.6 4.3 0.00 0.89 0.89 87 996.2
20260420034618 33 270 2.6 5.2 0.00 0.89 0.89 89 996.1
20260420033618 33 293 3.5 6.1 0.00 0.89 0.89 90 996.0
20260420032618 33 0.0 0.0 0.00 0.89 0.89 90 996.0
20260420031618 33 0.0 0.0 0.00 0.89 0.89 90 995.9
20260420030618 33 0.0 0.0 0.00 0.89 0.89 90 995.7
20260420025618 33 0.0 0.0 0.00 0.89 0.89 90 995.5
20260420024618 33 293 0.9 1.7 0.00 0.89 0.89 89 995.5
20260420023618 34 0.0 0.0 0.00 0.89 0.89 88 995.5
20260420022618 34 0.0 0.0 0.00 0.89 0.89 88 995.5
20260420021618 34 293 0.9 2.6 0.00 0.89 0.89 88 995.5
20260420020618 34 0.0 0.0 0.00 0.89 0.89 89 995.6
20260420015618 34 0.0 1.7 0.00 0.89 0.89 89 995.4
20260420014618 34 293 1.7 2.6 0.00 0.89 0.89 89 995.2
20260420013618 34 293 3.5 6.1 0.00 0.89 0.89 90 995.2
20260420012620 34 293 2.6 4.3 0.00 0.89 0.89 91 995.0